{"data":{"norad_id":62569,"intl_designator":"2025-006R","name":"STARLINK-32715","alt_names":[],"object_type":"PAYLOAD","status":"ACTIVE","operator":null,"country":"US","launch_date":"2025-01-10","launch_site_code":"AFETR","launch_vehicle":null,"mission":null,"orbit_class":"UNKNOWN","rcs_meters":null,"size_class":null,"mass_kg":null,"dimensions":null,"purposes":["comms"],"wikipedia_slug":null,"has_3d_model":false,"image_url":null,"decayed_at":null,"tle_current":{"epoch":"2026-05-25T05:15:13.847328Z","epoch_age_seconds":52218,"freshness":"FRESH","line1":"1 62569U 25006R   26145.21891027  .00023406  00000+0  85692-3 0  9996","line2":"2 62569  43.0002 220.6529 0001488 274.9401  85.1280 15.27597519 76562","mean_motion":15.27597519,"eccentricity":0.0001488,"inclination_deg":43.0002,"raan_deg":220.6529,"arg_perigee_deg":274.9401,"mean_anomaly_deg":85.128,"bstar":0.00085692,"rev_number":7656,"period_min":94.265667631004,"perigee_km":481.97570166718,"apogee_km":484.01757503795,"semimajor_km":6861.1336383526,"source":"CELESTRAK","updated_at":"2026-05-25T13:38:19.730853Z"}}}